Year,Month,Day,Hour,Minute,Value (Times are PST for temperature in C)
2015,08,13,00,00,25.20
2015,08,13,00,01,25.20
2015,08,13,00,02,25.00
2015,08,13,00,03,24.90
2015,08,13,00,04,24.80
2015,08,13,00,05,24.70
2015,08,13,00,06,24.60
2015,08,13,00,07,24.30
2015,08,13,00,08,24.00
2015,08,13,00,09,23.70
2015,08,13,00,10,23.30
2015,08,13,00,11,22.80
2015,08,13,00,12,22.50
2015,08,13,00,13,22.10
2015,08,13,00,14,21.70
2015,08,13,00,15,21.40
2015,08,13,00,16,21.10
2015,08,13,00,17,20.80
2015,08,13,00,18,20.70
2015,08,13,00,19,20.50
2015,08,13,00,20,20.40
2015,08,13,00,21,20.20
2015,08,13,00,22,20.10
2015,08,13,00,23,20.00
2015,08,13,00,24,19.80
2015,08,13,00,25,19.70
2015,08,13,00,26,19.60
2015,08,13,00,27,19.40
2015,08,13,00,28,19.30
2015,08,13,00,29,19.30
2015,08,13,00,30,19.20
2015,08,13,00,31,19.10
2015,08,13,00,32,19.10
2015,08,13,00,33,19.00
2015,08,13,00,34,18.90
2015,08,13,00,35,18.90
2015,08,13,00,36,18.80
2015,08,13,00,37,18.70
2015,08,13,00,38,18.60
2015,08,13,00,39,18.50
2015,08,13,00,40,18.50
2015,08,13,00,41,18.40
2015,08,13,00,42,18.40
2015,08,13,00,43,18.30
2015,08,13,00,44,18.30
2015,08,13,00,45,18.30
2015,08,13,00,46,18.20
2015,08,13,00,47,18.20
2015,08,13,00,48,18.20
2015,08,13,00,49,18.20
2015,08,13,00,50,18.20
2015,08,13,00,51,18.20
2015,08,13,00,52,18.20
2015,08,13,00,53,18.10
2015,08,13,00,54,18.10
2015,08,13,00,55,18.10
2015,08,13,00,56,18.10
2015,08,13,00,57,18.10
2015,08,13,00,58,18.10
2015,08,13,00,59,18.10
2015,08,13,01,00,18.10
2015,08,13,01,01,18.10
2015,08,13,01,02,18.00
2015,08,13,01,03,17.90
2015,08,13,01,04,17.90
2015,08,13,01,05,17.90
2015,08,13,01,06,17.90
2015,08,13,01,07,17.90
2015,08,13,01,08,17.80
2015,08,13,01,09,17.80
2015,08,13,01,10,17.80
2015,08,13,01,11,17.70
2015,08,13,01,12,17.70
2015,08,13,01,13,17.70
2015,08,13,01,14,17.60
2015,08,13,01,15,17.60
2015,08,13,01,16,17.50
2015,08,13,01,17,17.40
2015,08,13,01,18,17.40
2015,08,13,01,19,17.30
2015,08,13,01,20,17.30
2015,08,13,01,21,17.30
2015,08,13,01,22,17.30
2015,08,13,01,23,17.20
2015,08,13,01,24,17.20
2015,08,13,01,25,17.20
2015,08,13,01,26,17.10
2015,08,13,01,27,17.10
2015,08,13,01,28,17.10
2015,08,13,01,29,17.00
2015,08,13,01,30,17.00
2015,08,13,01,31,17.00
2015,08,13,01,32,17.00
2015,08,13,01,33,16.90
2015,08,13,01,34,16.90
2015,08,13,01,35,16.90
2015,08,13,01,36,16.90
2015,08,13,01,37,16.80
2015,08,13,01,38,16.80
2015,08,13,01,39,16.80
2015,08,13,01,40,16.80
2015,08,13,01,41,16.70
2015,08,13,01,42,16.70
2015,08,13,01,43,16.70
2015,08,13,01,44,16.70
2015,08,13,01,45,16.70
2015,08,13,01,46,16.70
2015,08,13,01,47,16.70
2015,08,13,01,48,16.70
2015,08,13,01,49,16.70
2015,08,13,01,50,16.70
2015,08,13,01,51,16.60
2015,08,13,01,52,16.60
2015,08,13,01,53,16.60
2015,08,13,01,54,16.60
2015,08,13,01,55,16.60
2015,08,13,01,56,16.50
2015,08,13,01,57,16.40
2015,08,13,01,58,16.40
2015,08,13,01,59,16.40
2015,08,13,02,00,16.40
2015,08,13,02,01,16.40
2015,08,13,02,02,16.40
2015,08,13,02,03,16.40
2015,08,13,02,04,16.30
2015,08,13,02,05,16.30
2015,08,13,02,06,16.30
2015,08,13,02,07,16.20
2015,08,13,02,08,16.20
2015,08,13,02,09,16.10
2015,08,13,02,10,16.10
2015,08,13,02,11,16.10
2015,08,13,02,12,16.10
2015,08,13,02,13,16.10
2015,08,13,02,14,16.10
2015,08,13,02,15,16.10
2015,08,13,02,16,16.10
2015,08,13,02,17,16.10
2015,08,13,02,18,16.10
2015,08,13,02,19,16.10
2015,08,13,02,20,16.10
2015,08,13,02,21,16.10
2015,08,13,02,22,16.00
2015,08,13,02,23,15.90
2015,08,13,02,24,15.90
2015,08,13,02,25,15.90
2015,08,13,02,26,15.90
2015,08,13,02,27,15.90
2015,08,13,02,28,15.90
2015,08,13,02,29,15.90
2015,08,13,02,30,15.80
2015,08,13,02,31,15.80
2015,08,13,02,32,15.80
2015,08,13,02,33,15.80
2015,08,13,02,34,15.80
2015,08,13,02,35,15.80
2015,08,13,02,36,15.80
2015,08,13,02,37,15.80
2015,08,13,02,38,15.80
2015,08,13,02,39,15.80
2015,08,13,02,40,15.70
2015,08,13,02,41,15.70
2015,08,13,02,42,15.70
2015,08,13,02,43,15.70
2015,08,13,02,44,15.60
2015,08,13,02,45,15.60
2015,08,13,02,46,15.60
2015,08,13,02,47,15.50
2015,08,13,02,48,15.50
2015,08,13,02,49,15.50
2015,08,13,02,50,15.50
2015,08,13,02,51,15.50
2015,08,13,02,52,15.50
2015,08,13,02,53,15.40
2015,08,13,02,54,15.40
2015,08,13,02,55,15.40
2015,08,13,02,56,15.40
2015,08,13,02,57,15.40
2015,08,13,02,58,15.30
2015,08,13,02,59,15.30
2015,08,13,03,00,15.30
2015,08,13,03,01,15.30
2015,08,13,03,02,15.30
2015,08,13,03,03,15.30
2015,08,13,03,04,15.30
2015,08,13,03,05,15.30
2015,08,13,03,06,15.30
2015,08,13,03,07,15.30
2015,08,13,03,08,15.20
2015,08,13,03,09,15.20
2015,08,13,03,10,15.20
2015,08,13,03,11,15.20
2015,08,13,03,12,15.10
2015,08,13,03,13,15.10
2015,08,13,03,14,15.10
2015,08,13,03,15,15.10
2015,08,13,03,16,15.00
2015,08,13,03,17,15.00
2015,08,13,03,18,15.00
2015,08,13,03,19,15.00
2015,08,13,03,20,14.90
2015,08,13,03,21,14.90
2015,08,13,03,22,14.90
2015,08,13,03,23,14.90
2015,08,13,03,24,14.90
2015,08,13,03,25,14.80
2015,08,13,03,26,14.80
2015,08,13,03,27,14.80
2015,08,13,03,28,14.80
2015,08,13,03,29,14.80
2015,08,13,03,30,14.80
2015,08,13,03,31,14.80
2015,08,13,03,32,14.70
2015,08,13,03,33,14.70
2015,08,13,03,34,14.70
2015,08,13,03,35,14.70
2015,08,13,03,36,14.70
2015,08,13,03,37,14.60
2015,08,13,03,38,14.60
2015,08,13,03,39,14.60
2015,08,13,03,40,14.60
2015,08,13,03,41,14.60
2015,08,13,03,42,14.60
2015,08,13,03,43,14.60
2015,08,13,03,44,14.60
2015,08,13,03,45,14.50
2015,08,13,03,46,14.50
2015,08,13,03,47,14.50
2015,08,13,03,48,14.50
2015,08,13,03,49,14.50
2015,08,13,03,50,14.50
2015,08,13,03,51,14.50
2015,08,13,03,52,14.50
2015,08,13,03,53,14.50
2015,08,13,03,54,14.50
2015,08,13,03,55,14.50
2015,08,13,03,56,14.50
2015,08,13,03,57,14.50
2015,08,13,03,58,14.50
2015,08,13,03,59,14.40
2015,08,13,04,00,14.40
2015,08,13,04,01,14.40
2015,08,13,04,02,14.30
2015,08,13,04,03,14.30
2015,08,13,04,04,14.30
2015,08,13,04,05,14.20
2015,08,13,04,06,14.20
2015,08,13,04,07,14.20
2015,08,13,04,08,14.20
2015,08,13,04,09,14.20
2015,08,13,04,10,14.20
2015,08,13,04,11,14.20
2015,08,13,04,12,14.20
2015,08,13,04,13,14.20
2015,08,13,04,14,14.20
2015,08,13,04,15,14.20
2015,08,13,04,16,14.20
2015,08,13,04,17,14.20
2015,08,13,04,18,14.20
2015,08,13,04,19,14.20
2015,08,13,04,20,14.20
2015,08,13,04,21,14.30
2015,08,13,04,22,14.30
2015,08,13,04,23,14.40
2015,08,13,04,24,14.50
2015,08,13,04,25,14.50
2015,08,13,04,26,14.60
2015,08,13,04,27,14.60
2015,08,13,04,28,14.70
2015,08,13,04,29,14.80
2015,08,13,04,30,14.80
2015,08,13,04,31,14.90
2015,08,13,04,32,15.00
2015,08,13,04,33,15.10
2015,08,13,04,34,15.20
2015,08,13,04,35,15.30
2015,08,13,04,36,15.50
2015,08,13,04,37,15.60
2015,08,13,04,38,15.80
2015,08,13,04,39,15.90
2015,08,13,04,40,16.10
2015,08,13,04,41,16.30
2015,08,13,04,42,16.40
2015,08,13,04,43,16.40
2015,08,13,04,44,16.50
2015,08,13,04,45,16.60
2015,08,13,04,46,16.70
2015,08,13,04,47,16.70
2015,08,13,04,48,16.70
2015,08,13,04,49,16.70
2015,08,13,04,50,16.70
2015,08,13,04,51,16.70
2015,08,13,04,52,16.70
2015,08,13,04,53,16.60
2015,08,13,04,54,16.60
2015,08,13,04,55,16.50
2015,08,13,04,56,16.40
2015,08,13,04,57,16.40
2015,08,13,04,58,16.30
2015,08,13,04,59,16.30
2015,08,13,05,00,16.20
2015,08,13,05,01,16.20
2015,08,13,05,02,16.10
2015,08,13,05,03,16.10
2015,08,13,05,04,16.00
2015,08,13,05,05,15.90
2015,08,13,05,06,15.90
2015,08,13,05,07,15.80
2015,08,13,05,08,15.80
2015,08,13,05,09,15.80
2015,08,13,05,10,15.70
2015,08,13,05,11,15.70
2015,08,13,05,12,15.60
2015,08,13,05,13,15.60
2015,08,13,05,14,15.60
2015,08,13,05,15,15.50
2015,08,13,05,16,15.50
2015,08,13,05,17,15.50
2015,08,13,05,18,15.50
2015,08,13,05,19,15.40
2015,08,13,05,20,15.40
2015,08,13,05,21,15.30
2015,08,13,05,22,15.30
2015,08,13,05,23,15.30
2015,08,13,05,24,15.30
2015,08,13,05,25,15.30
2015,08,13,05,26,15.30
2015,08,13,05,27,15.20
2015,08,13,05,28,15.20
2015,08,13,05,29,15.20
2015,08,13,05,30,15.20
2015,08,13,05,31,15.20
2015,08,13,05,32,15.20
2015,08,13,05,33,15.30
2015,08,13,05,34,15.30
2015,08,13,05,35,15.30
2015,08,13,05,36,15.30
2015,08,13,05,37,15.30
2015,08,13,05,38,15.30
2015,08,13,05,39,15.30
2015,08,13,05,40,15.30
2015,08,13,05,41,15.30
2015,08,13,05,42,15.30
2015,08,13,05,43,15.30
2015,08,13,05,44,15.30
2015,08,13,05,45,15.30
2015,08,13,05,46,15.30
2015,08,13,05,47,15.20
2015,08,13,05,48,15.20
2015,08,13,05,49,15.20
2015,08,13,05,50,15.20
2015,08,13,05,51,15.10
2015,08,13,05,52,15.10
2015,08,13,05,53,15.10
2015,08,13,05,54,15.10
2015,08,13,05,55,15.10
2015,08,13,05,56,15.00
2015,08,13,05,57,15.00
2015,08,13,05,58,15.00
2015,08,13,05,59,14.90
2015,08,13,06,00,14.90
2015,08,13,06,01,14.90
2015,08,13,06,02,14.80
2015,08,13,06,03,14.80
2015,08,13,06,04,14.80
2015,08,13,06,05,14.70
2015,08,13,06,06,14.70
2015,08,13,06,07,14.70
2015,08,13,06,08,14.60
2015,08,13,06,09,14.60
2015,08,13,06,10,14.50
2015,08,13,06,11,14.50
2015,08,13,06,12,14.50
2015,08,13,06,13,14.40
2015,08,13,06,14,14.40
2015,08,13,06,15,14.40
2015,08,13,06,16,14.40
2015,08,13,06,17,14.40
2015,08,13,06,18,14.30
2015,08,13,06,19,14.30
2015,08,13,06,20,14.30
2015,08,13,06,21,14.30
2015,08,13,06,22,14.30
2015,08,13,06,23,14.30
2015,08,13,06,24,14.20
2015,08,13,06,25,14.20
2015,08,13,06,26,14.20
2015,08,13,06,27,14.20
2015,08,13,06,28,14.20
2015,08,13,06,29,14.20
2015,08,13,06,30,14.20
2015,08,13,06,31,14.20
2015,08,13,06,32,14.20
2015,08,13,06,33,14.20
2015,08,13,06,34,14.20
2015,08,13,06,35,14.20
2015,08,13,06,36,14.20
2015,08,13,06,37,14.20
2015,08,13,06,38,14.20
2015,08,13,06,39,14.10
2015,08,13,06,40,14.10
2015,08,13,06,41,14.10
2015,08,13,06,42,14.10
2015,08,13,06,43,14.10
2015,08,13,06,44,14.00
2015,08,13,06,45,14.00
2015,08,13,06,46,14.00
2015,08,13,06,47,14.00
2015,08,13,06,48,14.00
2015,08,13,06,49,14.10
2015,08,13,06,50,14.10
2015,08,13,06,51,14.10
2015,08,13,06,52,14.10
2015,08,13,06,53,14.10
2015,08,13,06,54,14.10
2015,08,13,06,55,14.10
2015,08,13,06,56,14.10
2015,08,13,06,57,14.10
2015,08,13,06,58,14.20
2015,08,13,06,59,14.20
2015,08,13,07,00,14.20
2015,08,13,07,01,14.20
2015,08,13,07,02,14.20
2015,08,13,07,03,14.30
2015,08,13,07,04,14.30
2015,08,13,07,05,14.40
2015,08,13,07,06,14.40
2015,08,13,07,07,14.50
2015,08,13,07,08,14.50
2015,08,13,07,09,14.50
2015,08,13,07,10,14.60
2015,08,13,07,11,14.60
2015,08,13,07,12,14.60
2015,08,13,07,13,14.60
2015,08,13,07,14,14.70
2015,08,13,07,15,14.70
2015,08,13,07,16,14.70
2015,08,13,07,17,14.70
2015,08,13,07,18,14.80
2015,08,13,07,19,14.80
2015,08,13,07,20,14.80
2015,08,13,07,21,14.80
2015,08,13,07,22,14.90
2015,08,13,07,23,14.90
2015,08,13,07,24,15.00
2015,08,13,07,25,15.00
2015,08,13,07,26,15.10
2015,08,13,07,27,15.10
2015,08,13,07,28,15.20
2015,08,13,07,29,15.30
2015,08,13,07,30,15.30
2015,08,13,07,31,15.50
2015,08,13,07,32,15.60
2015,08,13,07,33,15.70
2015,08,13,07,34,15.80
2015,08,13,07,35,15.80
2015,08,13,07,36,16.00
2015,08,13,07,37,16.10
2015,08,13,07,38,16.20
2015,08,13,07,39,16.30
2015,08,13,07,40,16.40
2015,08,13,07,41,16.40
2015,08,13,07,42,16.50
2015,08,13,07,43,16.60
2015,08,13,07,44,16.60
2015,08,13,07,45,16.70
2015,08,13,07,46,16.80
2015,08,13,07,47,16.90
2015,08,13,07,48,17.00
2015,08,13,07,49,17.10
2015,08,13,07,50,17.20
2015,08,13,07,51,17.30
2015,08,13,07,52,17.30
2015,08,13,07,53,17.40
2015,08,13,07,54,17.50
2015,08,13,07,55,17.60
2015,08,13,07,56,17.60
2015,08,13,07,57,17.70
2015,08,13,07,58,17.70
2015,08,13,07,59,17.80
2015,08,13,08,00,17.90
2015,08,13,08,01,17.90
2015,08,13,08,02,18.00
2015,08,13,08,03,18.20
2015,08,13,08,04,18.20
2015,08,13,08,05,18.40
2015,08,13,08,06,18.50
2015,08,13,08,07,18.60
2015,08,13,08,08,18.70
2015,08,13,08,09,18.70
2015,08,13,08,10,18.80
2015,08,13,08,11,18.90
2015,08,13,08,12,19.00
2015,08,13,08,13,19.10
2015,08,13,08,14,19.10
2015,08,13,08,15,19.30
2015,08,13,08,16,19.30
2015,08,13,08,17,19.40
2015,08,13,08,18,19.50
2015,08,13,08,19,19.50
2015,08,13,08,20,19.50
2015,08,13,08,21,19.60
2015,08,13,08,22,19.60
2015,08,13,08,23,19.60
2015,08,13,08,24,19.50
2015,08,13,08,25,19.60
2015,08,13,08,26,19.60
2015,08,13,08,27,19.70
2015,08,13,08,28,19.80
2015,08,13,08,29,19.90
2015,08,13,08,30,19.90
2015,08,13,08,31,20.00
2015,08,13,08,32,20.10
2015,08,13,08,33,20.20
2015,08,13,08,34,20.40
2015,08,13,08,35,20.50
2015,08,13,08,36,20.50
2015,08,13,08,37,20.60
2015,08,13,08,38,20.70
2015,08,13,08,39,20.80
2015,08,13,08,40,20.80
2015,08,13,08,41,20.80
2015,08,13,08,42,20.90
2015,08,13,08,43,21.00
2015,08,13,08,44,21.10
2015,08,13,08,45,21.20
2015,08,13,08,46,21.30
2015,08,13,08,47,21.30
2015,08,13,08,48,21.50
2015,08,13,08,49,21.60
2015,08,13,08,50,21.60
2015,08,13,08,51,21.70
2015,08,13,08,52,21.70
2015,08,13,08,53,21.80
2015,08,13,08,54,21.80
2015,08,13,08,55,21.90
2015,08,13,08,56,22.00
2015,08,13,08,57,22.00
2015,08,13,08,58,22.00
2015,08,13,08,59,22.00
2015,08,13,09,00,22.00
2015,08,13,09,01,22.00
2015,08,13,09,02,22.00
2015,08,13,09,03,22.10
2015,08,13,09,04,22.10
2015,08,13,09,05,22.10
2015,08,13,09,06,22.10
2015,08,13,09,07,22.20
2015,08,13,09,08,22.20
2015,08,13,09,09,22.20
2015,08,13,09,10,22.30
2015,08,13,09,11,22.30
2015,08,13,09,12,22.40
2015,08,13,09,13,22.50
2015,08,13,09,14,22.70
2015,08,13,09,15,22.70
2015,08,13,09,16,22.90
2015,08,13,09,17,22.90
2015,08,13,09,18,22.90
2015,08,13,09,19,22.90
2015,08,13,09,20,23.00
2015,08,13,09,21,23.10
2015,08,13,09,22,23.20
2015,08,13,09,23,23.20
2015,08,13,09,24,23.20
2015,08,13,09,25,23.30
2015,08,13,09,26,23.30
2015,08,13,09,27,23.30
2015,08,13,09,28,23.30
2015,08,13,09,29,23.30
2015,08,13,09,30,23.20
2015,08,13,09,31,23.10
2015,08,13,09,32,23.00
2015,08,13,09,33,22.90
2015,08,13,09,34,22.90
2015,08,13,09,35,22.90
2015,08,13,09,36,22.80
2015,08,13,09,37,22.70
2015,08,13,09,38,22.70
2015,08,13,09,39,22.60
2015,08,13,09,40,22.60
2015,08,13,09,41,22.50
2015,08,13,09,42,22.40
2015,08,13,09,43,22.40
2015,08,13,09,44,22.30
2015,08,13,09,45,22.30
2015,08,13,09,46,22.30
2015,08,13,09,47,22.40
2015,08,13,09,48,22.30
2015,08,13,09,49,22.40
2015,08,13,09,50,22.40
2015,08,13,09,51,22.40
2015,08,13,09,52,22.50
2015,08,13,09,53,22.60
2015,08,13,09,54,22.60
2015,08,13,09,55,22.70
2015,08,13,09,56,22.80
2015,08,13,09,57,22.90
2015,08,13,09,58,22.80
2015,08,13,09,59,22.80
2015,08,13,10,00,22.70
2015,08,13,10,01,22.70
2015,08,13,10,02,22.80
2015,08,13,10,03,22.80
2015,08,13,10,04,22.80
2015,08,13,10,05,22.80
2015,08,13,10,06,22.80
2015,08,13,10,07,22.80
2015,08,13,10,08,22.80
2015,08,13,10,09,22.80
2015,08,13,10,10,22.80
2015,08,13,10,11,22.80
2015,08,13,10,12,22.80
2015,08,13,10,13,22.80
2015,08,13,10,14,22.80
2015,08,13,10,15,22.80
2015,08,13,10,16,22.80
2015,08,13,10,17,22.80
2015,08,13,10,18,22.70
2015,08,13,10,19,22.60
2015,08,13,10,20,22.50
2015,08,13,10,21,22.40
2015,08,13,10,22,22.40
2015,08,13,10,23,22.40
2015,08,13,10,24,22.40
2015,08,13,10,25,22.40
2015,08,13,10,26,22.40
2015,08,13,10,27,22.50
2015,08,13,10,28,22.50
2015,08,13,10,29,22.50
2015,08,13,10,30,22.50
2015,08,13,10,31,22.50
2015,08,13,10,32,22.50
2015,08,13,10,33,22.50
2015,08,13,10,34,22.60
2015,08,13,10,35,22.60
2015,08,13,10,36,22.70
2015,08,13,10,37,22.80
2015,08,13,10,38,22.90
2015,08,13,10,39,22.90
2015,08,13,10,40,22.90
2015,08,13,10,41,22.90
2015,08,13,10,42,23.00
2015,08,13,10,43,23.10
2015,08,13,10,44,23.10
2015,08,13,10,45,23.00
2015,08,13,10,46,22.90
2015,08,13,10,47,23.10
2015,08,13,10,48,23.10
2015,08,13,10,49,23.20
2015,08,13,10,50,23.20
2015,08,13,10,51,23.30
2015,08,13,10,52,23.30
2015,08,13,10,53,23.20
2015,08,13,10,54,23.30
2015,08,13,10,55,23.30
2015,08,13,10,56,23.40
2015,08,13,10,57,23.40
2015,08,13,10,58,23.40
2015,08,13,10,59,23.40
2015,08,13,11,00,23.30
2015,08,13,11,01,23.30
2015,08,13,11,02,23.40
2015,08,13,11,03,23.40
2015,08,13,11,04,23.40
2015,08,13,11,05,23.30
2015,08,13,11,06,23.20
2015,08,13,11,07,23.20
2015,08,13,11,08,23.10
2015,08,13,11,09,23.10
2015,08,13,11,10,23.10
2015,08,13,11,11,23.10
2015,08,13,11,12,23.10
2015,08,13,11,13,23.10
2015,08,13,11,14,23.00
2015,08,13,11,15,22.90
2015,08,13,11,16,22.90
2015,08,13,11,17,22.80
2015,08,13,11,18,22.70
2015,08,13,11,19,22.70
2015,08,13,11,20,22.70
2015,08,13,11,21,22.80
2015,08,13,11,22,22.90
2015,08,13,11,23,22.90
2015,08,13,11,24,23.00
2015,08,13,11,25,23.20
2015,08,13,11,26,23.30
2015,08,13,11,27,23.30
2015,08,13,11,28,23.30
2015,08,13,11,29,23.30
2015,08,13,11,30,23.40
2015,08,13,11,31,23.40
2015,08,13,11,32,23.40
2015,08,13,11,33,23.30
2015,08,13,11,34,23.30
2015,08,13,11,35,23.30
2015,08,13,11,36,23.40
2015,08,13,11,37,23.50
2015,08,13,11,38,23.70
2015,08,13,11,39,23.60
2015,08,13,11,40,23.60
2015,08,13,11,41,23.60
2015,08,13,11,42,23.60
2015,08,13,11,43,23.70
2015,08,13,11,44,23.70
2015,08,13,11,45,23.70
2015,08,13,11,46,23.70
2015,08,13,11,47,23.70
2015,08,13,11,48,23.70
2015,08,13,11,49,23.60
2015,08,13,11,50,23.70
2015,08,13,11,51,23.70
2015,08,13,11,52,23.70
2015,08,13,11,53,23.50
2015,08,13,11,54,23.40
2015,08,13,11,55,23.30
2015,08,13,11,56,23.40
2015,08,13,11,57,23.40
2015,08,13,11,58,23.60
2015,08,13,11,59,23.60
2015,08,13,12,00,23.70
2015,08,13,12,01,23.70
2015,08,13,12,02,23.50
2015,08,13,12,03,23.30
2015,08,13,12,04,23.20
2015,08,13,12,05,23.10
2015,08,13,12,06,23.10
2015,08,13,12,07,23.10
2015,08,13,12,08,23.10
2015,08,13,12,09,23.20
2015,08,13,12,10,23.30
2015,08,13,12,11,23.40
2015,08,13,12,12,23.60
2015,08,13,12,13,23.70
2015,08,13,12,14,23.90
2015,08,13,12,15,23.90
2015,08,13,12,16,23.90
2015,08,13,12,17,23.90
2015,08,13,12,18,23.90
2015,08,13,12,19,23.80
2015,08,13,12,20,23.80
2015,08,13,12,21,23.80
2015,08,13,12,22,23.70
2015,08,13,12,23,23.70
2015,08,13,12,24,23.60
2015,08,13,12,25,23.60
2015,08,13,12,26,23.60
2015,08,13,12,27,23.60
2015,08,13,12,28,23.70
2015,08,13,12,29,23.60
2015,08,13,12,30,23.50
2015,08,13,12,31,23.40
2015,08,13,12,32,23.30
2015,08,13,12,33,23.30
2015,08,13,12,34,23.20
2015,08,13,12,35,23.20
2015,08,13,12,36,23.10
2015,08,13,12,37,23.10
2015,08,13,12,38,23.20
2015,08,13,12,39,23.30
2015,08,13,12,40,23.30
2015,08,13,12,41,23.30
2015,08,13,12,42,23.30
2015,08,13,12,43,23.30
2015,08,13,12,44,23.30
2015,08,13,12,45,23.30
2015,08,13,12,46,23.30
2015,08,13,12,47,23.20
2015,08,13,12,48,23.00
2015,08,13,12,49,22.90
2015,08,13,12,50,22.90
2015,08,13,12,51,22.90
2015,08,13,12,52,22.90
2015,08,13,12,53,22.90
2015,08,13,12,54,22.90
2015,08,13,12,55,22.90
2015,08,13,12,56,22.90
2015,08,13,12,57,22.90
2015,08,13,12,58,22.90
2015,08,13,12,59,22.90
2015,08,13,13,00,22.90
2015,08,13,13,01,22.90
2015,08,13,13,02,22.90
2015,08,13,13,03,22.90
2015,08,13,13,04,22.90
2015,08,13,13,05,22.90
2015,08,13,13,06,22.90
2015,08,13,13,07,22.90
2015,08,13,13,08,22.80
2015,08,13,13,09,22.90
2015,08,13,13,10,22.90
2015,08,13,13,11,23.00
2015,08,13,13,12,23.10
2015,08,13,13,13,23.10
2015,08,13,13,14,23.10
2015,08,13,13,15,23.10
2015,08,13,13,16,23.20
2015,08,13,13,17,23.30
2015,08,13,13,18,23.20
2015,08,13,13,19,23.10
2015,08,13,13,20,23.10
2015,08,13,13,21,23.10
2015,08,13,13,22,23.20
2015,08,13,13,23,23.20
2015,08,13,13,24,23.20
2015,08,13,13,25,23.30
2015,08,13,13,26,23.30
2015,08,13,13,27,23.30
2015,08,13,13,28,23.40
2015,08,13,13,29,23.50
2015,08,13,13,30,23.60
2015,08,13,13,31,23.60
2015,08,13,13,32,23.60
2015,08,13,13,33,23.70
2015,08,13,13,34,23.70
2015,08,13,13,35,23.80
2015,08,13,13,36,23.90
2015,08,13,13,37,24.00
2015,08,13,13,38,24.10
2015,08,13,13,39,24.10
2015,08,13,13,40,24.10
2015,08,13,13,41,24.10
2015,08,13,13,42,24.10
2015,08,13,13,43,24.10
2015,08,13,13,44,24.00
2015,08,13,13,45,24.00
2015,08,13,13,46,24.10
2015,08,13,13,47,24.10
2015,08,13,13,48,24.10
2015,08,13,13,49,24.10
2015,08,13,13,50,24.10
2015,08,13,13,51,24.10
2015,08,13,13,52,24.10
2015,08,13,13,53,24.20
2015,08,13,13,54,24.30
2015,08,13,13,55,24.30
2015,08,13,13,56,24.20
2015,08,13,13,57,24.20
2015,08,13,13,58,24.30
2015,08,13,13,59,24.40
2015,08,13,14,00,24.40
2015,08,13,14,01,24.40
2015,08,13,14,02,24.30
2015,08,13,14,03,24.10
2015,08,13,14,04,24.10
2015,08,13,14,05,24.10
2015,08,13,14,06,24.10
2015,08,13,14,07,24.00
2015,08,13,14,08,23.90
2015,08,13,14,09,23.90
2015,08,13,14,10,23.80
2015,08,13,14,11,23.70
2015,08,13,14,12,23.60
2015,08,13,14,13,23.50
2015,08,13,14,14,23.30
2015,08,13,14,15,23.30
2015,08,13,14,16,23.40
2015,08,13,14,17,23.50
2015,08,13,14,18,23.60
2015,08,13,14,19,23.60
2015,08,13,14,20,23.70
2015,08,13,14,21,23.70
2015,08,13,14,22,23.70
2015,08,13,14,23,23.70
2015,08,13,14,24,23.80
2015,08,13,14,25,23.90
2015,08,13,14,26,23.80
2015,08,13,14,27,23.80
2015,08,13,14,28,23.80
2015,08,13,14,29,23.80
2015,08,13,14,30,23.70
2015,08,13,14,31,23.70
2015,08,13,14,32,23.70
2015,08,13,14,33,23.70
2015,08,13,14,34,23.60
2015,08,13,14,35,23.60
2015,08,13,14,36,23.60
2015,08,13,14,37,23.60
2015,08,13,14,38,23.50
2015,08,13,14,39,23.60
2015,08,13,14,40,23.70
2015,08,13,14,41,23.70
2015,08,13,14,42,23.70
2015,08,13,14,43,23.70
2015,08,13,14,44,23.70
2015,08,13,14,45,23.70
2015,08,13,14,46,23.80
2015,08,13,14,47,23.90
2015,08,13,14,48,24.00
2015,08,13,14,49,24.10
2015,08,13,14,50,24.20
2015,08,13,14,51,24.40
2015,08,13,14,52,24.50
2015,08,13,14,53,24.70
2015,08,13,14,54,24.80
2015,08,13,14,55,24.80
2015,08,13,14,56,24.90
2015,08,13,14,57,25.00
2015,08,13,14,58,25.00
2015,08,13,14,59,24.90
2015,08,13,15,00,24.90
2015,08,13,15,01,25.00
2015,08,13,15,02,25.00
2015,08,13,15,03,25.00
2015,08,13,15,04,24.90
2015,08,13,15,05,24.90
2015,08,13,15,06,24.70
2015,08,13,15,07,24.50
2015,08,13,15,08,24.40
2015,08,13,15,09,24.20
2015,08,13,15,10,24.10
2015,08,13,15,11,24.10
2015,08,13,15,12,24.10
2015,08,13,15,13,24.10
2015,08,13,15,14,24.20
2015,08,13,15,15,24.20
2015,08,13,15,16,24.20
2015,08,13,15,17,24.20
2015,08,13,15,18,24.20
2015,08,13,15,19,24.20
2015,08,13,15,20,24.30
2015,08,13,15,21,24.30
2015,08,13,15,22,24.30
2015,08,13,15,23,24.30
2015,08,13,15,24,24.40
2015,08,13,15,25,24.50
2015,08,13,15,26,24.60
2015,08,13,15,27,24.50
2015,08,13,15,28,24.50
2015,08,13,15,29,24.50
2015,08,13,15,30,24.60
2015,08,13,15,31,24.70
2015,08,13,15,32,24.90
2015,08,13,15,33,25.10
2015,08,13,15,34,25.30
2015,08,13,15,35,25.30
2015,08,13,15,36,25.30
2015,08,13,15,37,25.30
2015,08,13,15,38,25.20
2015,08,13,15,39,25.30
2015,08,13,15,40,25.40
2015,08,13,15,41,25.40
2015,08,13,15,42,25.60
2015,08,13,15,43,25.70
2015,08,13,15,44,25.70
2015,08,13,15,45,25.70
2015,08,13,15,46,25.70
2015,08,13,15,47,25.80
2015,08,13,15,48,25.80
2015,08,13,15,49,25.80
2015,08,13,15,50,25.90
2015,08,13,15,51,25.90
2015,08,13,15,52,26.00
2015,08,13,15,53,26.00
2015,08,13,15,54,26.20
2015,08,13,15,55,26.30
2015,08,13,15,56,26.40
2015,08,13,15,57,26.40
2015,08,13,15,58,26.40
2015,08,13,15,59,26.40
2015,08,13,16,00,26.40
2015,08,13,16,01,26.40
2015,08,13,16,02,26.40
2015,08,13,16,03,26.60
2015,08,13,16,04,26.60
2015,08,13,16,05,26.60
2015,08,13,16,06,26.60
2015,08,13,16,07,26.60
2015,08,13,16,08,26.60
2015,08,13,16,09,26.70
2015,08,13,16,10,26.80
2015,08,13,16,11,27.00
2015,08,13,16,12,27.10
2015,08,13,16,13,27.20
2015,08,13,16,14,27.20
2015,08,13,16,15,27.30
2015,08,13,16,16,27.40
2015,08,13,16,17,27.50
2015,08,13,16,18,27.60
2015,08,13,16,19,27.70
2015,08,13,16,20,27.70
2015,08,13,16,21,27.80
2015,08,13,16,22,27.80
2015,08,13,16,23,27.90
2015,08,13,16,24,28.00
2015,08,13,16,25,28.00
2015,08,13,16,26,28.10
2015,08,13,16,27,28.10
2015,08,13,16,28,28.10
2015,08,13,16,29,28.10
2015,08,13,16,30,28.10
2015,08,13,16,31,28.10
2015,08,13,16,32,28.10
2015,08,13,16,33,28.20
2015,08,13,16,34,28.20
2015,08,13,16,35,28.20
2015,08,13,16,36,28.30
2015,08,13,16,37,28.30
2015,08,13,16,38,28.30
2015,08,13,16,39,28.30
2015,08,13,16,40,28.30
2015,08,13,16,41,28.40
2015,08,13,16,42,28.40
2015,08,13,16,43,28.40
2015,08,13,16,44,28.50
2015,08,13,16,45,28.60
2015,08,13,16,46,28.50
2015,08,13,16,47,28.50
2015,08,13,16,48,28.60
2015,08,13,16,49,28.60
2015,08,13,16,50,28.60
2015,08,13,16,51,28.50
2015,08,13,16,52,28.40
2015,08,13,16,53,28.40
2015,08,13,16,54,28.40
2015,08,13,16,55,28.50
2015,08,13,16,56,28.60
2015,08,13,16,57,28.60
2015,08,13,16,58,28.60
2015,08,13,16,59,28.60
2015,08,13,17,00,28.60
2015,08,13,17,01,28.70
2015,08,13,17,02,28.70
2015,08,13,17,03,28.70
2015,08,13,17,04,28.70
2015,08,13,17,05,28.70
2015,08,13,17,06,28.70
2015,08,13,17,07,28.70
2015,08,13,17,08,28.70
2015,08,13,17,09,28.70
2015,08,13,17,10,28.80
2015,08,13,17,11,28.80
2015,08,13,17,12,28.90
2015,08,13,17,13,28.90
2015,08,13,17,14,28.80
2015,08,13,17,15,28.80
2015,08,13,17,16,28.80
2015,08,13,17,17,28.80
2015,08,13,17,18,28.80
2015,08,13,17,19,28.80